{"data":{"norad_id":63290,"epoch":"2026-05-25T05:24:26.123040Z","epoch_age_seconds":45656,"freshness":"FRESH","line1":"1 63290U 25054C   26145.22530235  .00000036  00000+0  19059-3 0  9991","line2":"2 63290  82.4966  92.9954 0016182  63.1027 297.1704 12.42892187 54005","mean_motion":12.42892187,"eccentricity":0.0016182,"inclination_deg":82.4966,"raan_deg":92.9954,"arg_perigee_deg":63.1027,"mean_anomaly_deg":297.1704,"bstar":0.00019059,"rev_number":5400,"period_min":115.85880216013,"perigee_km":1481.6273404512,"apogee_km":1507.1059111858,"semimajor_km":7872.5036258185,"source":"CELESTRAK","updated_at":"2026-05-25T13:38:03.618968Z"}}